• Processing (Info)

  • MPEC 2007-T67 : 2007 TJ19

    The following Minor Planet Electronic Circular may be linked-to from your own Web pages, but must not otherwise be redistributed electronically.

    A form allowing access to any MPEC is at the bottom of this page.


    Read MPEC 2007-T66 Read MPEC 2007-T68


    M.P.E.C. 2007-T67                                Issued 2007 Oct. 10, 22:11 UT
    
         The Minor Planet Electronic Circulars contain information on unusual
             minor planets and routine data on comets.  They are published
       on behalf of Commission 20 of the International Astronomical Union by the
              Minor Planet Center, Smithsonian Astrophysical Observatory,
                              Cambridge, MA 02138, U.S.A.
    
                 Prepared using the Tamkin Foundation Computer Network
    
                                  MPC@CFA.HARVARD.EDU
              URL http://www.cfa.harvard.edu/iau/mpc.html  ISSN 1523-6714
    
                                       2007 TJ19
    
    Observations:
         K07T19J* C2007 10 10.22026 00 26 03.52 +22 19 09.7          19.3 r ET067699
         K07T19J  C2007 10 10.24402 00 26 01.93 +22 15 43.0                 ET067699
         K07T19J  C2007 10 10.26781 00 26 00.44 +22 12 16.6                 ET067699
         K07T19J  C2007 10 10.29159 00 25 58.84 +22 08 50.3                 ET067699
         K07T19J  C2007 10 10.76332 00 25 35.88 +20 59 10.2          19.4 R ET067024
         K07T19J  C2007 10 10.76780 00 25 35.49 +20 58 29.8          19.2 R ET067024
         K07T19J  C2007 10 10.77366 00 25 35.20 +20 57 38.2          19.0 R ET067024
         K07T19J  C2007 10 10.82543 00 25 32.04 +20 49 57.1                 ET067246
         K07T19J  C2007 10 10.82639 00 25 32.04 +20 49 49.4                 ET067246
         K07T19J  C2007 10 10.82689 00 25 32.03 +20 49 44.5                 ET067246
         K07T19J  C2007 10 10.82771 00 25 31.91 +20 49 37.1                 ET067246
         K07T19J  C2007 10 10.82843 00 25 31.90 +20 49 30.9                 ET067246
         K07T19J  C2007 10 10.82893 00 25 31.90 +20 49 26.8                 ET067246
    
    Observer details:
    024 Heidelberg-Konigstuhl.  Observer F. Hormuth.  0.70-m reflector + CCD.
    246 Klet Observatory-KLENOT.  Observer M. Tichy.  1.06-m KLENOT Telescope
        + CCD.
    699 Lowell Observatory-LONEOS.  Observer B. A. Skiff.  0.59-m LONEOS Schmidt
        + CCD.
    
    Orbital elements:
    2007 TJ19                                                Earth MOID = 0.2003 AU
    Epoch 2007 Oct. 27.0 TT = JDT 2454400.5                 MPC
    M 323.96446              (2000.0)            P               Q
    n   0.56352160     Peri.  249.84736     +0.07866287     -0.97049014
    a   1.4516514      Node   200.25254     +0.96344643     +0.01526938
    e   0.2872402      Incl.   41.18650     -0.25609204     -0.24065687
    P   1.75           H   21.0           G   0.15           U   9
    Residuals in seconds of arc
    071010 699  0.2+  0.1-    071010 024  1.0-  0.6-    071010 246  0.4-  0.1-
    071010 699  0.4-  0.6-    071010 024  0.4-  0.1-    071010 246  0.1+  0.2+
    071010 699  0.5+  0.1-    071010 246  0.5-  0.4-    071010 246  0.5+  0.5+
    071010 699  0.1-  1.0+    071010 246  0.3+  0.4+
    071010 024  0.8+  0.1-    071010 246  0.6+  0.0
    
    Ephemeris:
    2007 TJ19                a,e,i = 1.45, 0.29, 41                  q = 1.0347
    Date    TT    R. A. (2000) Decl.     Delta      r     Elong.  Phase     V
    2007 10 07    00 28.89   +29 25.9    0.275    1.255   155.3    19.4    19.7
    2007 10 17    00 20.49   +03 26.0    0.225    1.214   162.9    14.0    19.0
    2007 10 27    00 15.20   -25 53.7    0.243    1.174   133.4    37.9    19.8
    2007 11 06    00 15.12   -45 17.2    0.312    1.138   110.4    54.7    20.7
    2007 11 16    00 21.02   -55 52.1    0.398    1.106    96.3    62.8    21.4
    2007 11 26    00 32.55   -61 51.9    0.485    1.078    87.2    66.1    21.9
    
    Sonia Keys                   (C) Copyright 2007 MPC           M.P.E.C. 2007-T67
    

    Read MPEC 2007-T66 Read MPEC 2007-T68


    MPEC number:

    Enter an MPEC number in one of the following forms:

    • 1997-B01 (the full form)
    • J97B01 (the packed version of the full form)
    • B01 (the abbreviated form)